Time,TemperatureF,DewpointF,PressureIn,WindDirection,WindDirectionDegrees,WindSpeedMPH,WindSpeedGustMPH,Humidity,HourlyPrecipIn,Conditions,Clouds,dailyrainin,SolarRadiationWatts/m^2,SoftwareType,DateUTC
2013-04-08 00:02:00,38.0,21.0,-100.00,North,11,10.0,21.0,50,0.00,,,0.00,0.000000,,2013-04-08 06:02:00,
2013-04-08 00:12:00,38.0,21.0,-100.00,North,11,10.0,21.0,50,0.00,,,0.00,0.000000,,2013-04-08 06:12:00,
2013-04-08 00:22:00,38.0,21.0,-100.00,North,11,10.0,21.0,50,0.00,,,0.00,0.000000,,2013-04-08 06:22:00,
2013-04-08 00:32:00,38.0,21.0,-100.00,North,11,10.0,21.0,50,0.00,,,0.00,0.000000,,2013-04-08 06:32:00,
2013-04-08 01:02:00,34.0,21.0,-100.00,NW,312,2.0,14.0,59,0.00,,,0.00,0.000000,,2013-04-08 07:02:00,
2013-04-08 01:12:00,34.0,21.0,-100.00,NW,312,2.0,14.0,59,0.00,,,0.00,0.000000,,2013-04-08 07:12:00,
2013-04-08 01:22:00,34.0,21.0,-100.00,NW,312,2.0,14.0,59,0.00,,,0.00,0.000000,,2013-04-08 07:22:00,
2013-04-08 01:33:00,34.0,21.0,-100.00,NW,312,2.0,14.0,59,0.00,,,0.00,0.000000,,2013-04-08 07:33:00,
2013-04-08 02:02:00,28.0,20.0,-100.00,North,358,3.0,8.0,70,0.00,,,0.00,0.000000,,2013-04-08 08:02:00,
2013-04-08 02:12:00,28.0,20.0,-100.00,North,358,3.0,8.0,70,0.00,,,0.00,0.000000,,2013-04-08 08:12:00,
2013-04-08 02:22:00,28.0,20.0,-100.00,North,358,3.0,8.0,70,0.00,,,0.00,0.000000,,2013-04-08 08:22:00,
2013-04-08 02:32:00,28.0,20.0,-100.00,North,358,3.0,8.0,70,0.00,,,0.00,0.000000,,2013-04-08 08:32:00,
2013-04-08 03:02:00,26.0,19.0,-100.00,North,354,4.0,6.0,75,0.00,,,0.00,0.000000,,2013-04-08 09:02:00,
2013-04-08 03:12:00,26.0,19.0,-100.00,North,354,4.0,6.0,75,0.00,,,0.00,0.000000,,2013-04-08 09:12:00,
2013-04-08 03:22:00,26.0,19.0,-100.00,North,354,4.0,6.0,75,0.00,,,0.00,0.000000,,2013-04-08 09:22:00,
2013-04-08 03:33:00,26.0,19.0,-100.00,North,354,4.0,6.0,75,0.00,,,0.00,0.000000,,2013-04-08 09:33:00,
2013-04-08 04:03:00,27.0,20.0,-100.00,NNW,341,4.0,8.0,74,0.00,,,0.00,0.000000,,2013-04-08 10:03:00,
2013-04-08 04:13:00,27.0,20.0,-100.00,NNW,341,4.0,8.0,74,0.00,,,0.00,0.000000,,2013-04-08 10:13:00,
2013-04-08 04:23:00,27.0,20.0,-100.00,NNW,341,4.0,8.0,74,0.00,,,0.00,0.000000,,2013-04-08 10:23:00,
2013-04-08 04:33:00,27.0,20.0,-100.00,NNW,341,4.0,8.0,74,0.00,,,0.00,0.000000,,2013-04-08 10:33:00,
2013-04-08 05:02:00,27.0,20.0,-100.00,North,354,5.0,9.0,73,0.00,,,0.00,0.000000,,2013-04-08 11:02:00,
2013-04-08 05:12:00,27.0,20.0,-100.00,North,354,5.0,9.0,73,0.00,,,0.00,0.000000,,2013-04-08 11:12:00,
2013-04-08 05:22:00,27.0,20.0,-100.00,North,354,5.0,9.0,73,0.00,,,0.00,0.000000,,2013-04-08 11:22:00,
2013-04-08 05:32:00,27.0,20.0,-100.00,North,354,5.0,9.0,73,0.00,,,0.00,0.000000,,2013-04-08 11:32:00,
2013-04-08 06:03:00,27.0,19.0,-100.00,North,6,4.0,8.0,71,0.00,,,0.00,0.000000,,2013-04-08 12:03:00,
2013-04-08 06:12:00,27.0,19.0,-100.00,North,6,4.0,8.0,71,0.00,,,0.00,0.000000,,2013-04-08 12:12:00,
2013-04-08 06:23:00,27.0,19.0,-100.00,North,6,4.0,8.0,71,0.00,,,0.00,0.000000,,2013-04-08 12:23:00,
2013-04-08 06:33:00,27.0,19.0,-100.00,North,6,4.0,8.0,71,0.00,,,0.00,0.000000,,2013-04-08 12:33:00,
2013-04-08 07:03:00,26.0,19.0,-100.00,NNE,15,3.0,6.0,74,0.00,,,0.00,0.000000,,2013-04-08 13:03:00,
2013-04-08 07:12:00,26.0,19.0,-100.00,NNE,15,3.0,6.0,74,0.00,,,0.00,0.000000,,2013-04-08 13:12:00,
2013-04-08 07:22:00,26.0,19.0,-100.00,NNE,15,3.0,6.0,74,0.00,,,0.00,0.000000,,2013-04-08 13:22:00,
2013-04-08 07:32:00,26.0,19.0,-100.00,NNE,15,3.0,6.0,74,0.00,,,0.00,0.000000,,2013-04-08 13:32:00,
2013-04-08 08:03:00,32.0,20.0,-100.00,ENE,66,4.0,6.0,60,0.00,,,0.00,22.000000,,2013-04-08 14:03:00,
2013-04-08 08:12:00,32.0,20.0,-100.00,ENE,66,4.0,6.0,60,0.00,,,0.00,22.000000,,2013-04-08 14:12:00,
2013-04-08 08:22:00,32.0,20.0,-100.00,ENE,66,4.0,6.0,60,0.00,,,0.00,22.000000,,2013-04-08 14:22:00,
2013-04-08 08:32:00,32.0,20.0,-100.00,ENE,66,4.0,6.0,60,0.00,,,0.00,22.000000,,2013-04-08 14:32:00,
2013-04-08 09:02:00,38.0,21.0,-100.00,WSW,254,3.0,5.0,49,0.00,,,0.00,91.000000,,2013-04-08 15:02:00,
2013-04-08 09:12:00,38.0,21.0,-100.00,WSW,254,3.0,5.0,49,0.00,,,0.00,91.000000,,2013-04-08 15:12:00,
2013-04-08 09:22:00,38.0,21.0,-100.00,WSW,254,3.0,5.0,49,0.00,,,0.00,91.000000,,2013-04-08 15:22:00,
2013-04-08 09:33:00,38.0,21.0,-100.00,WSW,254,3.0,5.0,49,0.00,,,0.00,91.000000,,2013-04-08 15:33:00,
2013-04-08 10:03:00,42.0,18.0,-100.00,SE,141,10.0,16.0,37,0.00,,,0.00,204.000000,,2013-04-08 16:03:00,
2013-04-08 10:13:00,42.0,18.0,-100.00,SE,141,10.0,16.0,37,0.00,,,0.00,204.000000,,2013-04-08 16:13:00,
2013-04-08 10:23:00,42.0,18.0,-100.00,SE,141,10.0,16.0,37,0.00,,,0.00,204.000000,,2013-04-08 16:23:00,
2013-04-08 10:32:00,42.0,18.0,-100.00,SE,141,10.0,16.0,37,0.00,,,0.00,204.000000,,2013-04-08 16:32:00,
2013-04-08 11:03:00,47.0,19.0,-100.00,SSE,152,8.0,16.0,33,0.00,,,0.00,485.000000,,2013-04-08 17:03:00,
2013-04-08 11:12:00,47.0,19.0,-100.00,SSE,152,8.0,16.0,33,0.00,,,0.00,485.000000,,2013-04-08 17:12:00,
2013-04-08 11:22:00,47.0,19.0,-100.00,SSE,152,8.0,16.0,33,0.00,,,0.00,485.000000,,2013-04-08 17:22:00,
2013-04-08 11:32:00,47.0,19.0,-100.00,SSE,152,8.0,16.0,33,0.00,,,0.00,485.000000,,2013-04-08 17:32:00,
2013-04-08 12:02:00,51.0,18.0,-100.00,SSE,164,16.0,23.0,27,0.00,,,0.00,813.000000,,2013-04-08 18:02:00,
2013-04-08 12:12:00,51.0,18.0,-100.00,SSE,164,16.0,23.0,27,0.00,,,0.00,813.000000,,2013-04-08 18:12:00,
2013-04-08 12:23:00,51.0,18.0,-100.00,SSE,164,16.0,23.0,27,0.00,,,0.00,813.000000,,2013-04-08 18:23:00,
2013-04-08 12:32:00,51.0,18.0,-100.00,SSE,164,16.0,23.0,27,0.00,,,0.00,813.000000,,2013-04-08 18:32:00,
2013-04-08 12:52:00,54.0,19.0,-100.00,South,183,14.0,26.0,25,0.00,,,0.00,688.000000,,2013-04-08 18:52:00,
2013-04-08 13:02:00,54.0,19.0,-100.00,South,183,14.0,26.0,25,0.00,,,0.00,688.000000,,2013-04-08 19:02:00,
2013-04-08 13:12:00,54.0,19.0,-100.00,South,183,14.0,26.0,25,0.00,,,0.00,688.000000,,2013-04-08 19:12:00,
2013-04-08 13:23:00,54.0,19.0,-100.00,South,183,14.0,26.0,25,0.00,,,0.00,688.000000,,2013-04-08 19:23:00,
2013-04-08 13:33:00,54.0,19.0,-100.00,South,183,14.0,26.0,25,0.00,,,0.00,688.000000,,2013-04-08 19:33:00,
2013-04-08 13:52:00,57.0,14.0,-100.00,South,182,21.0,34.0,18,0.00,,,0.00,1025.000000,,2013-04-08 19:52:00,
2013-04-08 14:02:00,57.0,14.0,-100.00,South,182,21.0,34.0,18,0.00,,,0.00,1025.000000,,2013-04-08 20:02:00,
2013-04-08 14:12:00,57.0,14.0,-100.00,South,182,21.0,34.0,18,0.00,,,0.00,1025.000000,,2013-04-08 20:12:00,
2013-04-08 14:22:00,57.0,14.0,-100.00,South,182,21.0,34.0,18,0.00,,,0.00,1025.000000,,2013-04-08 20:22:00,
2013-04-08 14:33:00,57.0,14.0,-100.00,South,182,21.0,34.0,18,0.00,,,0.00,1025.000000,,2013-04-08 20:33:00,
2013-04-08 15:02:00,56.0,17.0,-100.00,South,181,21.0,35.0,21,0.00,,,0.00,943.000000,,2013-04-08 21:02:00,
2013-04-08 15:12:00,56.0,17.0,-100.00,South,181,21.0,35.0,21,0.00,,,0.00,943.000000,,2013-04-08 21:12:00,
2013-04-08 15:22:00,56.0,17.0,-100.00,South,181,21.0,35.0,21,0.00,,,0.00,943.000000,,2013-04-08 21:22:00,
2013-04-08 15:32:00,56.0,17.0,-100.00,South,181,21.0,35.0,21,0.00,,,0.00,943.000000,,2013-04-08 21:32:00,
2013-04-08 16:03:00,54.0,16.0,-100.00,SSE,163,19.0,32.0,22,0.00,,,0.00,521.000000,,2013-04-08 22:03:00,
2013-04-08 16:13:00,54.0,16.0,-100.00,SSE,163,19.0,32.0,22,0.00,,,0.00,521.000000,,2013-04-08 22:13:00,
2013-04-08 16:23:00,54.0,16.0,-100.00,SSE,163,19.0,32.0,22,0.00,,,0.00,521.000000,,2013-04-08 22:23:00,
2013-04-08 16:32:00,54.0,16.0,-100.00,SSE,163,19.0,32.0,22,0.00,,,0.00,521.000000,,2013-04-08 22:32:00,
2013-04-08 17:02:00,50.0,20.0,-100.00,South,173,14.0,38.0,30,0.00,,,0.00,142.000000,,2013-04-08 23:02:00,
2013-04-08 17:12:00,50.0,20.0,-100.00,South,173,14.0,38.0,30,0.00,,,0.00,142.000000,,2013-04-08 23:12:00,
2013-04-08 17:22:00,50.0,20.0,-100.00,South,173,14.0,38.0,30,0.00,,,0.00,142.000000,,2013-04-08 23:22:00,
2013-04-08 17:32:00,50.0,20.0,-100.00,South,173,14.0,38.0,30,0.00,,,0.00,142.000000,,2013-04-08 23:32:00,
2013-04-08 18:02:00,49.0,20.0,-100.00,South,171,14.0,24.0,32,0.00,,,0.00,34.000000,,2013-04-09 00:02:00,
2013-04-08 18:12:00,49.0,20.0,-100.00,South,171,14.0,24.0,32,0.00,,,0.00,34.000000,,2013-04-09 00:12:00,
2013-04-08 18:22:00,49.0,20.0,-100.00,South,171,14.0,24.0,32,0.00,,,0.00,34.000000,,2013-04-09 00:22:00,
2013-04-08 18:32:00,49.0,20.0,-100.00,South,171,14.0,24.0,32,0.00,,,0.00,34.000000,,2013-04-09 00:32:00,
2013-04-08 19:02:00,43.0,28.0,-100.00,SW,225,7.0,33.0,56,0.00,,,0.00,34.000000,,2013-04-09 01:02:00,
2013-04-08 19:12:00,43.0,28.0,-100.00,SW,225,7.0,33.0,56,0.00,,,0.00,34.000000,,2013-04-09 01:12:00,
2013-04-08 19:22:00,43.0,28.0,-100.00,SW,225,7.0,33.0,56,0.00,,,0.00,34.000000,,2013-04-09 01:22:00,
2013-04-08 19:33:00,43.0,28.0,-100.00,SW,225,7.0,33.0,56,0.00,,,0.00,34.000000,,2013-04-09 01:33:00,
2013-04-08 20:02:00,43.0,28.0,-100.00,NNE,19,8.0,14.0,54,0.00,,,0.00,5.000000,,2013-04-09 02:02:00,
2013-04-08 20:13:00,43.0,28.0,-100.00,NNE,19,8.0,14.0,54,0.00,,,0.00,5.000000,,2013-04-09 02:13:00,
2013-04-08 20:22:00,43.0,28.0,-100.00,NNE,19,8.0,14.0,54,0.00,,,0.00,5.000000,,2013-04-09 02:22:00,
2013-04-08 20:32:00,43.0,28.0,-100.00,NNE,19,8.0,14.0,54,0.00,,,0.00,5.000000,,2013-04-09 02:32:00,
2013-04-08 21:02:00,47.0,19.0,-100.00,South,180,13.0,27.0,33,0.00,,,0.00,0.000000,,2013-04-09 03:02:00,
2013-04-08 21:12:00,47.0,19.0,-100.00,South,180,13.0,27.0,33,0.00,,,0.00,0.000000,,2013-04-09 03:12:00,
2013-04-08 21:21:00,47.0,19.0,-100.00,South,180,13.0,27.0,33,0.00,,,0.00,0.000000,,2013-04-09 03:21:00,
2013-04-08 21:33:00,47.0,19.0,-100.00,South,180,13.0,27.0,33,0.00,,,0.00,0.000000,,2013-04-09 03:33:00,
2013-04-08 22:03:00,41.0,20.0,-100.00,NE,37,2.0,17.0,42,0.00,,,0.00,0.000000,,2013-04-09 04:03:00,
2013-04-08 22:13:00,41.0,20.0,-100.00,NE,37,2.0,17.0,42,0.00,,,0.00,0.000000,,2013-04-09 04:13:00,
2013-04-08 22:23:00,41.0,20.0,-100.00,NE,37,2.0,17.0,42,0.00,,,0.00,0.000000,,2013-04-09 04:23:00,
2013-04-08 22:32:00,41.0,20.0,-100.00,NE,37,2.0,17.0,42,0.00,,,0.00,0.000000,,2013-04-09 04:32:00,
2013-04-08 23:02:00,39.0,25.0,-100.00,North,5,4.0,7.0,56,0.00,,,0.00,0.000000,,2013-04-09 05:02:00,
2013-04-08 23:12:00,39.0,25.0,-100.00,North,5,4.0,7.0,56,0.00,,,0.00,0.000000,,2013-04-09 05:12:00,
2013-04-08 23:22:00,39.0,25.0,-100.00,North,5,4.0,7.0,56,0.00,,,0.00,0.000000,,2013-04-09 05:22:00,
2013-04-08 23:32:00,39.0,25.0,-100.00,North,5,4.0,7.0,56,0.00,,,0.00,0.000000,,2013-04-09 05:32:00,